Location: Azenweiler
(47.8027°N, 9.4096°E)
Time: 23:38:23
(UTC+00:00)

S3M - Pass Details

Date: 10 December 2025
Orbit: 947 x 1004 km, 83.0° (Epoch: 19 January)

Event Time Altitude Azimuth Distance (km) Brightness Sun altitude
Rises 05:47:57 0° 351° (N) 3,677 6.7 -11.6°
Reaches altitude 10° 05:50:29 10° 353° (N) 2,718 6.1 -11.2°
Maximum altitude 05:56:43 79° 80° (E) 980 4.1 -10.2°
Drops below altitude 10° 06:02:50 10° 168° (SSE) 2,669 6.8 -9.3°
Sets 06:05:18 0° 169° (S) 3,607 7.5 -8.9°
